Вернуться в каталог

STARLINK-3618

АктивенСвязьVLEO
NORAD 51998·PAYLOAD·🇺🇸 United States

Запущен Mar 9, 2022 с Cape Canaveral Space Force Station

Loading…

Ближайшие Пролёты (ближайшие 24 часа)

TLE

СвежийSource: CelesTrak SupGP

Эпоха: Sep 15, 2026, 01:37 UTC

1 51998C 22025AU  26258.06784722 -.00042560  00000+0 -12574-2 0  2589
2 51998  53.1571 235.3619 0001407  85.3323  37.0268 15.34412279    16

Отслеживайте STARLINK-3618 в реальном времени с AllMySat

Download on the App Store